Location: Corte Bragagnani
(45.3000°N, 11.1000°E)
Time: 10:04:22
(UTC+00:00)

Cosmos 1763 Rocket - Pass Details

Date: 09 April 2020
Orbit: 734 x 779 km, 74.0° (Epoch: 23 May)

Event Time Altitude Azimuth Distance (km) Brightness Sun altitude
Rises 19:42:42 0° 343° (NNW) 3,227 7.5 -18.4°
Reaches altitude 10° 19:45:12 10° 349° (N) 2,290 6.6 -18.7°
Maximum altitude 19:50:11 47° 63° (ENE) 991 3.8 -19.5°
Enters shadow 19:51:30 38° 104° (ESE) 1,127 3.9 -19.6°
